W5CWT-13 Weather Reports


Display with metric or nautical units.
time (UTC)temp
F
wind
direction
speed
MPH
gust
MPH
rain 1hr
in
rain 24hr
in
rain mn
in
humidity
%
barometer
mb
20190318174530 73 98 3.0 4.0 0.00 0.00 0.00 31 1028.6
20190318174023 72 105 5.0 8.0 0.00 0.00 0.00 30 1028.7
20190318173515 72 100 4.0 8.0 0.00 0.00 0.00 30 1028.7
20190318173026 72 81 3.0 6.0 0.00 0.00 0.00 31 1028.7
20190318172519 72 111 4.0 6.0 0.00 0.00 0.00 30 1028.7
20190318172030 72 63 5.0 8.0 0.00 0.00 0.00 28 1028.7
20190318171523 75 83 5.0 7.0 0.00 0.00 0.00 27 1028.9
20190318171015 75 91 3.0 7.0 0.00 0.00 0.00 29 1028.9
20190318170527 73 317 3.0 4.0 0.00 0.00 0.00 30 1029.0
20190318170020 74 115 3.0 4.0 0.00 0.00 0.00 29 1029.3
20190318165531 75 122 3.0 6.0 0.00 0.00 0.00 28 1029.3
20190318165023 73 128 2.0 4.0 0.00 0.00 0.00 30 1029.3
20190318164516 73 158 3.0 5.0 0.00 0.00 0.00 30 1029.3
20190318164027 74 77 2.0 5.0 0.00 0.00 0.00 27 1029.4
20190318163520 72 101 3.0 4.0 0.00 0.00 0.00 29 1029.6
20190318163030 71 139 2.0 4.0 0.00 0.00 0.00 30 1029.6
20190318162522 70 149 3.0 4.0 0.00 0.00 0.00 31 1029.4
20190318162033 71 106 4.0 6.0 0.00 0.00 0.00 29 1029.4
20190318161525 71 84 3.0 6.0 0.00 0.00 0.00 31 1029.4
20190318161018 71 87 3.0 7.0 0.00 0.00 0.00 31 1029.4
20190318160529 70 104 2.0 6.0 0.00 0.00 0.00 33 1029.4
20190318160021 70 97 3.0 5.0 0.00 0.00 0.00 33 1029.3
20190318155526 70 54 3.0 5.0 0.00 0.00 0.00 34 1029.3
20190318155025 70 52 3.0 4.0 0.00 0.00 0.00 34 1029.4
20190318154517 70 71 3.0 4.0 0.00 0.00 0.00 33 1029.4
20190318154022 69 48 3.0 5.0 0.00 0.00 0.00 32 1029.3
20190318153520 70 90 3.0 4.0 0.00 0.00 0.00 34 1029.3
20190318153019 68 127 2.0 3.0 0.00 0.00 0.00 38 1029.2
20190318152519 67 113 1.0 3.0 0.00 0.00 0.00 40 1029.1
20190318152016 65 23 1.0 2.0 0.00 0.00 0.00 42 1029.1
20190318151527 64 359 2.0 2.0 0.00 0.00 0.00 43 1029.1
20190318151019 65 48 2.0 4.0 0.00 0.00 0.00 42 1029.1
20190318150530 63 71 2.0 3.0 0.00 0.00 0.00 44 1029.1
20190318150023 62 72 2.0 3.0 0.00 0.00 0.00 45 1029.1
20190318145517 62 73 2.0 3.0 0.00 0.00 0.00 45 1029.1
20190318145026 61 80 2.0 3.0 0.00 0.00 0.00 45 1028.9
20190318144519 62 74 2.0 3.0 0.00 0.00 0.00 44 1028.9
20190318144029 62 70 2.0 3.0 0.00 0.00 0.00 43 1028.8
20190318143522 61 59 2.0 3.0 0.00 0.00 0.00 45 1028.7
20190318143032 62 85 2.0 3.0 0.00 0.00 0.00 45 1028.7
20190318142525 61 75 2.0 3.0 0.00 0.00 0.00 48 1028.6
20190318142018 59 75 2.0 3.0 0.00 0.00 0.00 53 1028.6
20190318141528 58 28 2.0 2.0 0.00 0.00 0.00 57 1028.6
20190318141021 57 84 1.0 2.0 0.00 0.00 0.00 62 1028.6
20190318140531 55 103 0.0 1.0 0.00 0.00 0.00 66 1028.5
20190318140024 54 0.0 0.0 0.00 0.00 0.00 69 1028.4
20190318135516 53 0.0 0.0 0.00 0.00 0.00 69 1028.4
20190318135028 52 90 0.0 1.0 0.00 0.00 0.00 73 1028.4
20190318134520 50 97 1.0 2.0 0.00 0.00 0.00 79 1028.4
20190318134031 48 0.0 0.0 0.00 0.00 0.00 80 1028.3
20190318133524 47 0.0 0.0 0.00 0.00 0.00 80 1028.1
20190318133017 46 0.0 0.0 0.00 0.00 0.00 80 1028.1
20190318132527 45 0.0 0.0 0.00 0.00 0.00 81 1027.9
20190318132021 45 0.0 0.0 0.00 0.00 0.00 81 1027.9
20190318131531 44 0.0 0.0 0.00 0.00 0.00 83 1027.9
20190318131024 44 79 0.0 2.0 0.00 0.00 0.00 84 1027.9
20190318130517 44 0.0 0.0 0.00 0.00 0.00 83 1027.9
20190318130022 43 0.0 0.0 0.00 0.00 0.00 83 1027.9
20190318125532 43 0.0 0.0 0.00 0.00 0.00 84 1027.9
20190318125025 42 0.0 0.0 0.00 0.00 0.00 84 1027.9
20190318124517 42 0.0 0.0 0.00 0.00 0.00 84 1027.9
20190318124028 41 0.0 0.0 0.00 0.00 0.00 84 1027.8
20190318123522 42 0.0 0.0 0.00 0.00 0.00 83 1027.7
20190318123032 42 0.0 0.0 0.00 0.00 0.00 83 1027.7
20190318122525 42 0.0 0.0 0.00 0.00 0.00 83 1027.7
20190318122016 42 0.0 0.0 0.00 0.00 0.00 83 1027.7
20190318121528 42 0.0 0.0 0.00 0.00 0.00 83 1027.7
20190318121020 42 0.0 0.0 0.00 0.00 0.00 84 1027.7
20190318120525 42 0.0 0.0 0.00 0.00 0.00 84 1027.7
20190318120023 42 0.0 0.0 0.00 0.00 0.00 84 1027.6
20190318115516 41 0.0 0.0 0.00 0.00 0.00 84 1027.6
20190318115020 41 0.0 0.0 0.00 0.00 0.00 83 1027.4
20190318114520 41 0.0 0.0 0.00 0.00 0.00 83 1027.4
20190318114018 41 0.0 0.0 0.00 0.00 0.00 83 1027.3
20190318113517 41 0.0 0.0 0.00 0.00 0.00 83 1027.2
20190318113016 41 0.0 0.0 0.00 0.00 0.00 82 1027.2
20190318112527 41 0.0 0.0 0.00 0.00 0.00 82 1027.0
20190318112019 41 0.0 0.0 0.00 0.00 0.00 83 1027.0
20190318111530 42 0.0 0.0 0.00 0.00 0.00 83 1026.9
20190318111023 42 0.0 0.0 0.00 0.00 0.00 84 1026.9
20190318110518 42 0.0 0.0 0.00 0.00 0.00 83 1026.9
20190318110027 41 0.0 0.0 0.00 0.00 0.00 83 1026.8
20190318105519 41 0.0 0.0 0.00 0.00 0.00 83 1026.8
20190318105030 41 0.0 0.0 0.00 0.00 0.00 83 1026.7
20190318104523 41 0.0 0.0 0.00 0.00 0.00 83 1026.7
20190318104033 42 0.0 0.0 0.00 0.00 0.00 83 1026.7
20190318103526 42 0.0 0.0 0.00 0.00 0.00 83 1026.7
20190318103019 42 0.0 0.0 0.00 0.00 0.00 82 1026.7
20190318102530 42 0.0 0.0 0.00 0.00 0.00 83 1026.6
20190318102022 42 0.0 0.0 0.00 0.00 0.00 82 1026.6
20190318101515 42 0.0 0.0 0.00 0.00 0.00 82 1026.6
20190318101027 42 0.0 0.0 0.00 0.00 0.00 82 1026.6
20190318100519 42 0.0 0.0 0.00 0.00 0.00 82 1026.6
20190318100030 42 0.0 0.0 0.00 0.00 0.00 82 1026.4
20190318095522 42 0.0 0.0 0.00 0.00 0.00 83 1026.4
20190318095015 42 0.0 0.0 0.00 0.00 0.00 82 1026.5
20190318094526 42 0.0 0.0 0.00 0.00 0.00 82 1026.5
20190318094018 42 0.0 0.0 0.00 0.00 0.00 83 1026.6
20190318093529 42 0.0 0.0 0.00 0.00 0.00 84 1026.6
20190318093022 42 0.0 0.0 0.00 0.00 0.00 82 1026.6
20190318092532 43 0.0 0.0 0.00 0.00 0.00 82 1026.6
20190318092025 43 0.0 0.0 0.00 0.00 0.00 82 1026.6
20190318091520 42 0.0 0.0 0.00 0.00 0.00 83 1026.7
20190318091028 43 0.0 0.0 0.00 0.00 0.00 83 1026.8
20190318090520 43 0.0 0.0 0.00 0.00 0.00 83 1026.8
20190318090031 42 0.0 0.0 0.00 0.00 0.00 83 1026.7
20190318085523 42 0.0 0.0 0.00 0.00 0.00 83 1026.7
20190318085016 42 0.0 0.0 0.00 0.00 0.00 83 1026.8
20190318084527 43 0.0 0.0 0.00 0.00 0.00 83 1026.8
20190318084019 42 0.0 0.0 0.00 0.00 0.00 84 1026.9
20190318083530 43 0.0 0.0 0.00 0.00 0.00 82 1026.9
20190318083022 43 0.0 0.0 0.00 0.00 0.00 82 1026.9
20190318082515 43 0.0 0.0 0.00 0.00 0.00 81 1026.9
20190318082026 43 0.0 0.0 0.00 0.00 0.00 81 1026.9
20190318081518 43 0.0 0.0 0.00 0.00 0.00 82 1027.0
20190318081023 43 0.0 0.0 0.00 0.00 0.00 82 1027.0
20190318080521 43 0.0 0.0 0.00 0.00 0.00 81 1027.0
20190318080020 44 0.0 0.0 0.00 0.00 0.00 81 1027.0
20190318075519 44 0.0 0.0 0.00 0.00 0.00 81 1027.0
20190318075018 44 0.0 0.0 0.00 0.00 0.00 80 1027.0
20190318074517 44 0.0 0.0 0.00 0.00 0.00 81 1027.0
20190318074021 44 71 1.0 2.0 0.00 0.00 0.00 82 1027.2
20190318073531 43 75 2.0 2.0 0.00 0.00 0.00 83 1027.2
20190318073024 43 93 2.0 2.0 0.00 0.00 0.00 84 1027.2
20190318072517 42 96 2.0 3.0 0.00 0.00 0.00 84 1027.1
20190318072027 42 90 2.0 3.0 0.00 0.00 0.00 83 1027.1
20190318071520 43 0.0 0.0 0.00 0.00 0.00 82 1027.2
20190318071032 43 0.0 0.0 0.00 0.00 0.00 82 1027.2
20190318070525 43 0.0 0.0 0.00 0.00 0.00 81 1027.2
20190318070017 43 0.0 0.0 0.00 0.00 0.00 81 1027.0
20190318065528 43 0.0 0.0 0.00 0.00 0.00 80 1027.0
20190318065021 43 0.0 0.0 0.00 0.00 0.00 79 1027.2
20190318064531 43 0.0 0.0 0.00 0.00 0.00 79 1027.2
20190318064025 43 0.0 0.0 0.00 0.00 0.00 79 1027.3
20190318063517 44 0.0 0.0 0.00 0.00 0.00 79 1027.4
20190318063028 44 0.0 0.0 0.00 0.00 0.00 81 1027.4
20190318062520 44 0.0 0.0 0.00 0.00 0.00 80 1027.2
20190318062031 44 0.0 0.0 0.00 0.00 0.00 79 1027.2
20190318061524 44 0.0 0.0 0.00 0.00 0.00 79 1027.3
20190318061017 44 0.0 0.0 0.00 0.00 0.00 79 1027.4
20190318060527 44 0.0 0.0 0.00 0.00 0.00 79 1027.4
20190318060020 44 0.0 0.0 0.00 0.00 0.00 80 1027.4
20190318055530 45 0.0 0.0 0.00 0.00 0.00 80 1027.4
20190318055024 45 0.0 0.0 0.00 0.00 0.00 79 1027.4
20190318054516 45 0.0 0.0 0.00 0.00 0.00 78 1027.4
20190318054028 45 0.0 0.0 0.00 0.00 0.00 78 1027.4
20190318053520 45 0.0 0.0 0.00 0.00 0.00 77 1027.4
20190318053018 45 0.0 0.0 0.00 0.00 0.00 76 1027.4
20190318052528 46 0.0 0.0 0.00 0.00 0.00 76 1027.4
20190318052021 46 0.0 0.0 0.00 0.00 0.00 77 1027.4
20190318051531 46 0.0 0.0 0.00 0.00 0.00 76 1027.4
20190318051025 46 0.0 0.0 0.00 0.00 0.00 76 1027.4
20190318050517 46 0.0 0.0 0.00 0.00 0.00 76 1027.5
20190318050028 46 0.0 0.0 0.00 0.00 0.00 76 1027.6
20190318045520 46 0.0 0.0 0.00 0.00 0.00 76 1027.6
20190318045031 46 0.0 0.0 0.00 0.00 0.00 75 1027.7
20190318044524 46 0.0 0.0 0.00 0.00 0.00 76 1027.7
20190318044018 47 0.0 0.0 0.00 0.00 0.00 76 1027.7
20190318043527 47 0.0 0.0 0.00 0.00 0.00 73 1027.5
20190318043020 47 0.0 0.0 0.00 0.00 0.00 73 1027.5
20190318042524 47 0.0 0.0 0.00 0.00 0.00 72 1027.5
20190318042022 47 0.0 0.0 0.00 0.00 0.00 70 1027.5
20190318041522 48 0.0 0.0 0.00 0.00 0.00 68 1027.5
20190318041020 48 0.0 0.0 0.00 0.00 0.00 69 1027.5
20190318040520 48 0.0 0.0 0.00 0.00 0.00 68 1027.6
20190318040019 48 0.0 0.0 0.00 0.00 0.00 69 1027.6
20190318035518 48 0.0 0.0 0.00 0.00 0.00 67 1027.6
20190318035016 49 0.0 0.0 0.00 0.00 0.00 69 1027.6
20190318034533 49 0.0 0.0 0.00 0.00 0.00 68 1027.6
20190318034026 49 0.0 0.0 0.00 0.00 0.00 66 1027.5
20190318033518 50 0.0 0.0 0.00 0.00 0.00 64 1027.4
20190318033029 50 0.0 0.0 0.00 0.00 0.00 63 1027.4
20190318032522 50 0.0 0.0 0.00 0.00 0.00 63 1027.4
20190318032032 50 0.0 0.0 0.00 0.00 0.00 63 1027.4
20190318031524 50 0.0 0.0 0.00 0.00 0.00 65 1027.4
20190318031017 50 0.0 0.0 0.00 0.00 0.00 63 1027.4
20190318030527 50 0.0 0.0 0.00 0.00 0.00 63 1027.4
20190318030020 51 0.0 0.0 0.00 0.00 0.00 62 1027.4
20190318025526 51 0.0 0.0 0.00 0.00 0.00 62 1027.4
20190318025018 51 0.0 0.0 0.00 0.00 0.00 60 1027.3
20190318024529 52 0.0 0.0 0.00 0.00 0.00 58 1027.2
20190318024021 52 0.0 0.0 0.00 0.00 0.00 58 1027.2
20190318023532 52 0.0 0.0 0.00 0.00 0.00 58 1027.2
20190318023025 52 0.0 0.0 0.00 0.00 0.00 57 1027.2
20190318022517 53 0.0 0.0 0.00 0.00 0.00 56 1027.1
20190318022028 53 0.0 0.0 0.00 0.00 0.00 56 1027.1
20190318021520 53 0.0 0.0 0.00 0.00 0.00 52 1027.1
20190318021031 54 0.0 0.0 0.00 0.00 0.00 51 1027.1
20190318020523 54 0.0 0.0 0.00 0.00 0.00 50 1027.1
20190318020016 55 0.0 0.0 0.00 0.00 0.00 50 1026.8
20190318015527 55 0.0 0.0 0.00 0.00 0.00 50 1026.8
20190318015019 55 0.0 0.0 0.00 0.00 0.00 48 1026.7
20190318014530 55 0.0 0.0 0.00 0.00 0.00 48 1026.7
20190318014022 56 0.0 0.0 0.00 0.00 0.00 46 1026.6
20190318013533 56 0.0 0.0 0.00 0.00 0.00 45 1026.5
20190318013025 57 0.0 0.0 0.00 0.00 0.00 44 1026.5
20190318012520 57 0.0 0.0 0.00 0.00 0.00 42 1026.4
20190318012029 58 0.0 0.0 0.00 0.00 0.00 41 1026.4
20190318011528 59 0.0 0.0 0.00 0.00 0.00 40 1026.4
20190318011015 59 0.0 0.0 0.00 0.00 0.00 39 1026.3
20190318010525 59 0.0 0.0 0.00 0.00 0.00 37 1026.3
20190318010019 60 0.0 0.0 0.00 0.00 0.00 37 1026.3
20190318005530 61 0.0 0.0 0.00 0.00 0.00 36 1026.3
20190318005022 61 0.0 0.0 0.00 0.00 0.00 35 1026.2
20190318004532 62 0.0 0.0 0.00 0.00 0.00 34 1026.2
20190318004026 63 0.0 0.0 0.00 0.00 0.00 34 1026.2
20190318003518 63 0.0 0.0 0.00 0.00 0.00 33 1026.1
20190318003023 64 67 0.0 1.0 0.00 0.00 0.00 32 1026.1
20190318002521 65 0.0 0.0 0.00 0.00 0.00 32 1026.1
20190318002020 65 143 0.0 2.0 0.00 0.00 0.00 32 1026.1
20190318001518 66 113 1.0 2.0 0.00 0.00 0.00 31 1026.0
20190318001016 67 190 0.0 3.0 0.00 0.00 0.00 30 1026.0
20190318000517 68 74 1.0 3.0 0.00 0.00 0.00 30 1026.0
20190318000020 68 107 2.0 4.0 0.00 0.00 0.00 28 1026.0
20190317235532 69 95 2.0 4.0 0.00 0.00 0.00 28 1026.0
20190317235024 69 110 1.0 3.0 0.00 0.00 0.00 28 1025.8
20190317234517 69 113 1.0 3.0 0.00 0.00 0.00 28 1025.8
20190317234028 70 75 3.0 5.0 0.00 0.00 0.00 27 1025.8
20190317233521 71 137 0.0 2.0 0.00 0.00 0.00 27 1025.8
20190317233033 71 83 3.0 6.0 0.00 0.00 0.00 27 1025.8
20190317232524 71 115 1.0 4.0 0.00 0.00 0.00 26 1025.7
20190317232018 72 111 2.0 5.0 0.00 0.00 0.00 26 1025.7
20190317231528 71 166 2.0 3.0 0.00 0.00 0.00 28 1025.7
20190317231021 71 108 2.0 3.0 0.00 0.00 0.00 28 1025.7
20190317230531 71 161 3.0 6.0 0.00 0.00 0.00 27 1025.7
20190317230024 71 97 2.0 4.0 0.00 0.00 0.00 27 1025.6
20190317225517 72 77 4.0 5.0 0.00 0.00 0.00 26 1025.6
20190317225027 71 86 2.0 3.0 0.00 0.00 0.00 27 1025.6
20190317224520 71 107 3.0 5.0 0.00 0.00 0.00 27 1025.6
20190317224031 71 92 4.0 7.0 0.00 0.00 0.00 27 1025.6
20190317223523 73 97 4.0 6.0 0.00 0.00 0.00 26 1025.7
20190317223016 72 100 3.0 4.0 0.00 0.00 0.00 27 1025.7
20190317222527 72 180 3.0 4.0 0.00 0.00 0.00 28 1025.8
20190317222020 71 135 2.0 5.0 0.00 0.00 0.00 28 1025.8
20190317221530 71 110 4.0 8.0 0.00 0.00 0.00 27 1025.9
20190317221024 70 62 3.0 7.0 0.00 0.00 0.00 26 1025.9
20190317220516 71 96 5.0 7.0 0.00 0.00 0.00 27 1025.9
20190317220028 71 116 3.0 6.0 0.00 0.00 0.00 28 1025.8
20190317215520 70 116 4.0 9.0 0.00 0.00 0.00 28 1025.8
20190317215032 69 80 6.0 10.0 0.00 0.00 0.00 26 1025.9
20190317214524 71 66 5.0 10.0 0.00 0.00 0.00 26 1025.9
20190317214017 70 100 4.0 6.0 0.00 0.00 0.00 27 1025.9
20190317213527 70 99 5.0 9.0 0.00 0.00 0.00 27 1025.9
20190317213021 71 80 7.0 10.0 0.00 0.00 0.00 26 1025.9
20190317212531 71 184 3.0 5.0 0.00 0.00 0.00 27 1026.0
20190317212023 71 309 4.0 6.0 0.00 0.00 0.00 27 1026.0
20190317211516 70 70 4.0 8.0 0.00 0.00 0.00 27 1026.1
20190317211027 70 70 5.0 6.0 0.00 0.00 0.00 26 1026.1
20190317210519 71 103 5.0 8.0 0.00 0.00 0.00 26 1026.1
20190317210030 71 84 5.0 7.0 0.00 0.00 0.00 26 1026.2
20190317205522 71 133 4.0 7.0 0.00 0.00 0.00 28 1026.2
20190317205016 70 48 5.0 9.0 0.00 0.00 0.00 26 1026.4
20190317204526 72 110 4.0 7.0 0.00 0.00 0.00 26 1026.4
20190317204019 71 74 4.0 10.0 0.00 0.00 0.00 27 1026.5
20190317203524 71 86 4.0 6.0 0.00 0.00 0.00 27 1026.6
20190317203023 71 117 4.0 7.0 0.00 0.00 0.00 27 1026.7
20190317202522 70 113 4.0 7.0 0.00 0.00 0.00 28 1026.9
20190317202020 69 62 6.0 10.0 0.00 0.00 0.00 27 1026.9
20190317201519 70 77 4.0 9.0 0.00 0.00 0.00 27 1027.1
20190317201017 69 77 4.0 7.0 0.00 0.00 0.00 27 1027.2
20190317200517 70 84 4.0 6.0 0.00 0.00 0.00 28 1027.3
20190317200015 70 90 5.0 9.0 0.00 0.00 0.00 28 1027.4
20190317195521 69 56 5.0 8.0 0.00 0.00 0.00 28 1027.4
20190317195031 70 54 5.0 8.0 0.00 0.00 0.00 28 1027.5
20190317194524 70 69 5.0 6.0 0.00 0.00 0.00 27 1027.5
20190317194016 69 104 3.0 6.0 0.00 0.00 0.00 30 1027.8
20190317193528 69 90 5.0 8.0 0.00 0.00 0.00 28 1027.9
20190317193019 70 66 5.0 8.0 0.00 0.00 0.00 28 1028.0
20190317192530 69 105 3.0 6.0 0.00 0.00 0.00 30 1028.1
20190317192023 68 126 6.0 10.0 0.00 0.00 0.00 30 1028.1
20190317191515 69 95 6.0 11.0 0.00 0.00 0.00 28 1028.4
20190317191026 69 92 4.0 5.0 0.00 0.00 0.00 29 1028.4
20190317190520 69 109 6.0 9.0 0.00 0.00 0.00 29 1028.5
20190317190030 69 151 4.0 8.0 0.00 0.00 0.00 31 1028.6
20190317185523 68 105 6.0 8.0 0.00 0.00 0.00 30 1028.6
20190317185015 69 103 4.0 8.0 0.00 0.00 0.00 30 1028.9
20190317184527 69 79 4.0 8.0 0.00 0.00 0.00 30 1028.9
20190317184019 68 91 4.0 5.0 0.00 0.00 0.00 31 1029.0
20190317183530 67 117 5.0 7.0 0.00 0.00 0.00 32 1029.1
20190317183022 67 89 6.0 9.0 0.00 0.00 0.00 30 1029.1
20190317182532 66 97 5.0 10.0 0.00 0.00 0.00 31 1029.1
20190317182025 66 76 6.0 10.0 0.00 0.00 0.00 32 1029.1
20190317181518 66 87 6.0 10.0 0.00 0.00 0.00 32 1029.2
20190317181028 66 107 5.0 7.0 0.00 0.00 0.00 31 1029.3
20190317180521 65 100 6.0 11.0 0.00 0.00 0.00 31 1029.3
20190317180032 65 76 6.0 10.0 0.00 0.00 0.00 31 1029.4
20190317175524 66 72 6.0 11.0 0.00 0.00 0.00 30 1029.4